IRIDIUM 33 DEB, 34985

Orbit data source: Space-Track

IRIDIUM 33 DEB, 34985 is space debris in LEO originally from a launch on Sun, 14 Sep 1997 UTC launched from the Tyuratam Missile And Space Complex (TTMTR). The debris from Iridium 33, an American commercial communications satellite, has been tracked extensively since its accidental collision with the defunct Russian satellite Cosmos 2251 in 2009. This event, occurring at high speed in low Earth orbit (LEO), generated thousands of pieces of space debris, significantly increasing the risk of further collisions. The Iridium 33 debris cloud has impacted space traffic management and orbital debris mitigation strategies, making it a subject of ongoing study in space situational awareness.

Loading next visibility...
Identifier
34985, 1997-051NR
Orbit
LEO
Country
Flag of USUS
Related business
Manufacturer
Unknown
Mission
Spacecraft
Bus & Motor
Unknown
Mass
Unknown
Launch date (UTC)
1997-09-14 (28 years ago)
Launch vehicle
Unknown
Launch site
Tyuratam Missile And Space Complex (TTMTR)
Object type
Payload
Rocket body
Debris
Shape & HBR
Unknown shape, 0.1 m
Radar Cross Section
Small (<0.1 m²)

Expand to show TLE details & history
Last TLE update: 7 hours ago

TLE from 7 hours ago
0 IRIDIUM 33 DEB
1 34985U 97051NR  26065.83227270  .00003663  00000-0  10987-2 0  9996
2 34985  86.3733  20.9825 0019755 313.0396  75.6527 14.42453938883878
Epoch: 2026-03-06T19:58Z
TLE epoch observation values (Epoch: 2026-03-06T19:58:28.361Z)
Latitude
28.89402°
Longitude
-81.20437°
Altitude
750.652 km
Speed
7.484 km/s
True Right ascension
01h 31m 54s
True Declination
28° 44' 55"
Sunlit
Object was in daylight at epoch
Visualization orbit readout
Latitude
Unknown
Longitude
Unknown
Altitude
Unknown
Speed
Unknown
Apparent Right ascension
Unknown
Apparent Declination
Unknown
Sunlit
N/A
Visualization observer readout
Local Sidereal Time
06:29:50
Azimuth
Unknown
Elevation
Unknown
Doppler factor
Unknown
Orbital elements
Apogee altitude
761.432 km
Perigee altitude
733.279 km
Semi-major axis
7,125.492 km
Eccentricity
0.00198
Inclination
86.3733°
RAAN
20.9825°
Arg. of periapsis
313.0396°
True anomaly
75.87215°
Mean anomaly
75.6527°
Eccentric anomaly
75.76241°
Mean motion
3.60845 °/min
Orbital period
99.77 mins
BSTAR
0.0010987
Loading maneuver chart data...
Computing Atmospheric mass density...
Loading historical data...
Loading historical data...
Loading historical data...
Loading historical data...
Loading historical data...
Loading historical data...
Loading historical data...

Documentation

Showing up to 5 results
|